Ukiah, CA

3:40 PM PDT on June 21, 2018 (GMT -0700)
Ukiah Municipal

Weather History for KUKI - September, 2017

Change the Weather History Date:

Thursday, September 14, 2017

  Actual Average Record
Temperature  
Mean Temperature 68 °F 69 °F  
Max Temperature 83 °F 88 °F 110 °F (1971)
Min Temperature 52 °F 50 °F 35 °F (1921)
Degree Days  
Heating Degree Days 0 1  
Month to date heating degree days 4  
Since 1 July heating degree days 7  
Cooling Degree Days 2 5  
Month to date cooling degree days 76  
Year to date cooling degree days 759  
Growing Degree Days 18 (Base 50)    
Moisture  
Dew Point 45 °F    
Average Humidity 57    
Maximum Humidity 93    
Minimum Humidity 20    
Precipitation  
Precipitation 0.00 in 0.02 in 0.52 in (1997)
Month to date precipitation T 0.18  
Year to date precipitation 34.51 23.70  
Snow  
Snow 0.00 in - - ()
Month to date snowfall 0.0  
Since 1 July snowfall 0.0  
Since 1 September snowfall 0.0  
Snow Depth 0.00 in    
Sea Level Pressure  
Sea Level Pressure 29.84 in    
Wind  
Wind Speed 5 mph (NNW)    
Max Wind Speed 21 mph    
Max Gust Speed 28 mph    
Visibility 10 miles    
Events      
T = Trace of Precipitation, MM = Missing Value Source: NWS Daily Summary

Daily Weather History Graph

Daily Weather History Graph

Search for Another Location

Airport or City:

Astronomy

Sep. 14, 2017 Rise Set
Actual Time 6:53 AM PDT 7:22 PM PDT
Civil Twilight 6:26 AM PDT 7:48 PM PDT
Nautical Twilight 5:55 AM PDT 8:20 PM PDT
Astronomical Twilight 5:22 AM PDT 8:52 PM PDT
Moon 12:57 AM PDT (9/14) 3:42 PM PDT (9/14)
Length of Visible Light 13h 22m
Length of Day
12h 28m
Waning Crescent, 33% of the Moon is Illuminated
Sep 14
Waning Crescent
Sep 19
New
Sep 27
First Quarter
Oct 5
Full
Oct 12
Last Quarter

Hourly Weather History & Observations

Time (PDT) Temp. Dew Point Humidity Pressure Visibility Wind Dir Wind Speed Gust Speed Precip Events Conditions
12:45 AM 59.0 °F 55.0 °F 87% 29.83 in 10.0 mi Calm Calm - N/A   Mostly Cloudy
12:56 AM 59.0 °F 55.0 °F 87% 29.81 in 10.0 mi North 3.5 mph - N/A   Mostly Cloudy
1:56 AM 59.0 °F 55.0 °F 87% 29.81 in 10.0 mi Calm Calm - N/A   Overcast
2:56 AM 57.9 °F 53.1 °F 84% 29.81 in 10.0 mi North 3.5 mph - N/A   Mostly Cloudy
3:04 AM 57.9 °F 53.1 °F 84% 29.82 in 10.0 mi North 3.5 mph - N/A   Scattered Clouds
3:56 AM 55.9 °F 53.1 °F 90% 29.81 in 10.0 mi NNW 3.5 mph - N/A   Clear
4:56 AM 55.0 °F 52.0 °F 89% 29.82 in 10.0 mi WNW 3.5 mph - N/A   Clear
5:56 AM 54.0 °F 52.0 °F 93% 29.83 in 10.0 mi Calm Calm - N/A   Clear
6:56 AM 53.1 °F 52.0 °F 96% 29.84 in 10.0 mi WNW 4.6 mph - N/A   Clear
7:56 AM 55.0 °F 51.1 °F 86% 29.85 in 10.0 mi Calm Calm - N/A   Clear
8:56 AM 59.0 °F 51.1 °F 75% 29.86 in 10.0 mi Calm Calm - N/A   Clear
9:56 AM 62.1 °F 51.1 °F 67% 29.86 in 10.0 mi ESE 3.5 mph - N/A   Clear
10:56 AM 66.9 °F 46.9 °F 49% 29.86 in 10.0 mi Calm Calm - N/A   Clear
11:56 AM 73.9 °F 45.0 °F 35% 29.84 in 10.0 mi Variable 3.5 mph - N/A   Clear
12:56 PM 81.0 °F 37.0 °F 21% 29.82 in 10.0 mi North - - N/A   Clear
1:56 PM 82.9 °F 39.0 °F 21% 29.81 in 10.0 mi North 11.5 mph 17.3 mph N/A   Clear
2:56 PM 82.0 °F 37.9 °F 21% 29.79 in 10.0 mi West 16.1 mph 24.2 mph N/A   Clear
3:56 PM 78.1 °F 35.1 °F 21% 29.80 in 10.0 mi WNW 17.3 mph 23.0 mph N/A   Clear
4:56 PM 75.9 °F 33.1 °F 21% 29.82 in 10.0 mi North 12.7 mph 21.9 mph N/A   Clear
5:56 PM 73.0 °F 34.0 °F 24% 29.84 in 10.0 mi NNE 9.2 mph - N/A   Clear
6:56 PM 68.0 °F 36.0 °F 31% 29.86 in 10.0 mi North 8.1 mph 18.4 mph N/A   Clear
7:56 PM 64.9 °F 39.9 °F 40% 29.88 in 10.0 mi North 9.2 mph 19.6 mph N/A   Clear
8:56 PM 63.0 °F 41.0 °F 45% 29.89 in 10.0 mi North 10.4 mph - N/A   Clear
9:56 PM 62.1 °F 37.9 °F 41% 29.89 in 10.0 mi Variable 3.5 mph - N/A   Clear
10:56 PM 57.0 °F 43.0 °F 59% 29.90 in 10.0 mi Calm Calm - N/A   Clear
11:56 PM 54.0 °F 41.0 °F 62% 29.91 in 10.0 mi South 3.5 mph - N/A   Clear